Concordia, KS

9:22 AM CST on November 17, 2019 (GMT -0600)
Blosser Municipal

Weather History for KCNK - September, 2019

Change the Weather History Date:

Wednesday, September 18, 2019

  Actual Average Record
Temperature  
Mean Temperature 84 °F 67 °F  
Max Temperature 95 °F 79 °F 100 °F (1931)
Min Temperature 72 °F 55 °F 36 °F (1901)
Degree Days  
Heating Degree Days 0 2  
Month to date heating degree days 0 22  
Since 1 July heating degree days 0 25  
Cooling Degree Days 19 4  
Month to date cooling degree days 252 123  
Year to date cooling degree days 1529 1289  
Growing Degree Days 34 (Base 50)    
Moisture  
Dew Point 67 °F    
Average Humidity 62    
Maximum Humidity 84    
Minimum Humidity 39    
Precipitation  
Precipitation T in 0.10 in 1.61 in (1919)
Month to date precipitation 0.02 1.76  
Year to date precipitation 28.86 22.86  
Snow  
Snow 0.00 in 0.00 in T in (1932)
Month to date snowfall 0.0 0.0  
Year to date snowfall 32.3 13.7  
Since 1 July snowfall 0.0 0.0  
Snow Depth 0.00 in    
Sea Level Pressure  
Sea Level Pressure 29.86 in    
Wind  
Wind Speed 13 mph (South)    
Max Wind Speed 22 mph    
Max Gust Speed 29 mph    
Visibility 10 miles    
Events Thunderstorm    
T = Trace of Precipitation, MM = Missing Value Source: NWS Daily Summary

Daily Weather History Graph

Daily Weather History Graph

Search for Another Location

Airport or City:

Astronomy

Sep. 18, 2019 Rise Set
Actual Time 7:14 AM CDT 7:34 PM CDT
Civil Twilight 6:47 AM CDT 8:01 PM CDT
Nautical Twilight 6:15 AM CDT 8:32 PM CDT
Astronomical Twilight 5:43 AM CDT 9:05 PM CDT
Moon 10:10 PM CDT (9/18) 11:18 AM CDT (9/18)
Length of Visible Light 13h 13m
Length of Day
12h 20m
Waning Gibbous, 82% of the Moon is Illuminated
Sep 18
Waning Gibbous
Sep 21
Last Quarter
Sep 28
New
Oct 5
First Quarter
Oct 13
Full

Hourly Weather History & Observations

Time (CDT) Temp. Heat Index Dew Point Humidity Pressure Visibility Wind Dir Wind Speed Gust Speed Precip Events Conditions
12:55 AM 78.1 °F - 66.9 °F 68% 29.83 in 10.0 mi South 17.3 mph - N/A   Clear
1:55 AM 77.0 °F - 66.9 °F 71% 29.84 in 10.0 mi South 16.1 mph 24.2 mph N/A   Clear
2:55 AM 77.0 °F - 66.9 °F 71% 29.85 in 10.0 mi South 12.7 mph - N/A   Clear
3:55 AM 75.0 °F - 66.9 °F 76% 29.85 in 10.0 mi SSE 9.2 mph - N/A   Clear
4:55 AM 73.9 °F - 66.9 °F 79% 29.85 in 10.0 mi SSE 10.4 mph - N/A   Scattered Clouds
5:55 AM 73.0 °F - 66.9 °F 81% 29.86 in 10.0 mi SSE 9.2 mph - N/A   Clear
6:55 AM 72.0 °F - 66.9 °F 84% 29.86 in 10.0 mi SSE 9.2 mph - N/A   Clear
7:30 AM 75.0 °F - 66.9 °F 76% 29.91 in 10.0 mi South 9.2 mph - N/A Thunderstorm Partly Cloudy
7:55 AM 75.0 °F - 66.9 °F 76% 29.87 in 10.0 mi South 8.1 mph - N/A Thunderstorm Clear
8:06 AM 75.9 °F - 66.9 °F 74% 29.93 in 10.0 mi South 10.4 mph - N/A Thunderstorm Thunderstorm
8:22 AM 75.9 °F - 66.9 °F 74% 29.92 in 10.0 mi South 12.7 mph - 0.00 in   Scattered Clouds
8:55 AM 77.0 °F - 66.9 °F 71% 29.87 in 10.0 mi South 12.7 mph - 0.00 in   Scattered Clouds
9:55 AM 79.0 °F - 68.0 °F 69% 29.88 in 10.0 mi South 16.1 mph 24.2 mph N/A   Mostly Cloudy
10:55 AM 84.9 °F 88.8 °F 69.1 °F 59% 29.88 in 10.0 mi SSW 13.8 mph 23.0 mph N/A   Clear
11:55 AM 89.1 °F 93.7 °F 69.1 °F 52% 29.88 in 10.0 mi SSW 13.8 mph 23.0 mph N/A   Clear
12:55 PM 91.0 °F 94.3 °F 66.9 °F 45% 29.87 in 10.0 mi South 18.4 mph 28.8 mph N/A   Clear
1:55 PM 93.0 °F 96.4 °F 66.9 °F 42% 29.86 in 10.0 mi South 13.8 mph 24.2 mph N/A   Clear
2:55 PM 93.9 °F 97.5 °F 66.9 °F 41% 29.86 in 10.0 mi South 17.3 mph 25.3 mph N/A   Clear
3:55 PM 93.9 °F 97.0 °F 66.0 °F 40% 29.85 in 10.0 mi SSW 12.7 mph 25.3 mph N/A   Clear
4:55 PM 93.0 °F 95.0 °F 64.9 °F 39% 29.84 in 10.0 mi South 15.0 mph - N/A   Clear
5:55 PM 91.9 °F 94.5 °F 66.0 °F 42% 29.84 in 10.0 mi SSE 9.2 mph - N/A   Clear
6:55 PM 88.0 °F 90.3 °F 66.0 °F 48% 29.84 in 10.0 mi South 8.1 mph - N/A   Clear
7:55 PM 82.9 °F 85.4 °F 66.9 °F 58% 29.85 in 10.0 mi SSE 9.2 mph - N/A   Clear
8:55 PM 82.9 °F 85.4 °F 66.9 °F 58% 29.86 in 10.0 mi SSE 13.8 mph - N/A   Clear
9:55 PM 82.0 °F 84.5 °F 66.9 °F 60% 29.88 in 10.0 mi SSE 13.8 mph - N/A   Clear
10:55 PM 81.0 °F 83.3 °F 66.9 °F 62% 29.88 in 10.0 mi South 13.8 mph - N/A   Clear
11:55 PM 79.0 °F - 66.9 °F 66% 29.88 in 10.0 mi South 13.8 mph 24.2 mph N/A   Mostly Cloudy